| time (UTC) | temp C | wind direction | speed KPH | gust KPH | rain 1hr cm | rain 24hr cm | rain mn cm | humidity % | barometer mb |
| 20260505031756 | 15 | 149 | 3.2 | 4.8 | 0.00 | 0.00 | 0.00 | 48 | 1010.0 |
| 20260505031252 | 15 | 187 | 3.2 | 8.0 | 0.00 | 0.00 | 0.00 | 48 | 1009.9 |
| 20260505030749 | 15 | 219 | 4.8 | 6.4 | 0.00 | 0.00 | 0.00 | 47 | 1009.9 |
| 20260505030246 | 15 | 243 | 6.4 | 9.7 | 0.00 | 0.00 | 0.00 | 47 | 1009.8 |
| 20260505025742 | 15 | 208 | 6.4 | 9.7 | 0.00 | 0.00 | 0.00 | 47 | 1009.8 |
| 20260505025240 | 15 | 220 | 3.2 | 4.8 | 0.00 | 0.00 | 0.00 | 47 | 1010.1 |
| 20260505024738 | 16 | 194 | 3.2 | 4.8 | 0.00 | 0.00 | 0.00 | 46 | 1010.0 |
| 20260505024235 | 16 | 196 | 8.0 | 9.7 | 0.00 | 0.00 | 0.00 | 46 | 1009.9 |
| 20260505023732 | 16 | 177 | 3.2 | 6.4 | 0.00 | 0.00 | 0.00 | 46 | 1009.9 |
| 20260505023230 | 16 | 183 | 4.8 | 9.7 | 0.00 | 0.00 | 0.00 | 45 | 1010.0 |
| 20260505022727 | 16 | 116 | 3.2 | 3.2 | 0.00 | 0.00 | 0.00 | 46 | 1009.9 |
| 20260505022224 | 16 | 138 | 1.6 | 6.4 | 0.00 | 0.00 | 0.00 | 45 | 1009.9 |
| 20260505021720 | 16 | 158 | 3.2 | 6.4 | 0.00 | 0.00 | 0.00 | 45 | 1010.0 |
| 20260505021218 | 16 | 214 | 4.8 | 9.7 | 0.00 | 0.00 | 0.00 | 44 | 1010.0 |
| 20260505020713 | 16 | 319 | 0.0 | 11.3 | 0.00 | 0.00 | 0.00 | 44 | 1009.7 |
| 20260505020208 | 16 | 196 | 1.6 | 9.7 | 0.00 | 0.00 | 0.00 | 44 | 1009.8 |
| 20260505015706 | 16 | 206 | 4.8 | 9.7 | 0.00 | 0.00 | 0.00 | 44 | 1009.8 |
| 20260505015203 | 16 | 146 | 0.0 | 9.7 | 0.00 | 0.00 | 0.00 | 44 | 1009.9 |
| 20260505014700 | 17 | 201 | 1.6 | 4.8 | 0.00 | 0.00 | 0.00 | 43 | 1009.7 |
| 20260505014157 | 17 | 189 | 3.2 | 6.4 | 0.00 | 0.00 | 0.00 | 43 | 1009.6 |
| 20260505013654 | 17 | 172 | 3.2 | 12.9 | 0.00 | 0.00 | 0.00 | 42 | 1009.3 |
| 20260505013151 | 17 | 190 | 6.4 | 8.0 | 0.00 | 0.00 | 0.00 | 42 | 1009.5 |
| 20260505012649 | 17 | 169 | 3.2 | 6.4 | 0.00 | 0.00 | 0.00 | 43 | 1009.3 |
| 20260505012146 | 17 | 205 | 8.0 | 9.7 | 0.00 | 0.00 | 0.00 | 42 | 1009.1 |
| 20260505011642 | 17 | 200 | 3.2 | 4.8 | 0.00 | 0.00 | 0.00 | 42 | 1009.1 |
| 20260505011139 | 17 | 182 | 3.2 | 6.4 | 0.00 | 0.00 | 0.00 | 41 | 1009.1 |
| 20260505010639 | 17 | 203 | 6.4 | 14.5 | 0.00 | 0.00 | 0.00 | 41 | 1009.1 |
| 20260505010137 | 18 | 231 | 0.0 | 9.7 | 0.00 | 0.00 | 0.00 | 41 | 1008.9 |
| 20260505005632 | 18 | 251 | 3.2 | 12.9 | 0.00 | 0.00 | 0.00 | 40 | 1008.7 |
| 20260505005130 | 18 | 187 | 4.8 | 9.7 | 0.00 | 0.00 | 0.00 | 39 | 1008.5 |
| 20260505004627 | 18 | 236 | 3.2 | 12.9 | 0.00 | 0.00 | 0.00 | 39 | 1008.4 |
| 20260505004123 | 18 | 180 | 6.4 | 14.5 | 0.00 | 0.00 | 0.00 | 38 | 1008.5 |
| 20260505003621 | 18 | 242 | 6.4 | 6.4 | 0.00 | 0.00 | 0.00 | 38 | 1008.1 |
| 20260505003118 | 18 | 217 | 3.2 | 9.7 | 0.00 | 0.00 | 0.00 | 37 | 1008.2 |
| 20260505002614 | 18 | 200 | 1.6 | 16.1 | 0.00 | 0.00 | 0.00 | 37 | 1007.9 |
| 20260505002112 | 18 | 201 | 3.2 | 6.4 | 0.00 | 0.00 | 0.00 | 36 | 1007.6 |
| 20260505001609 | 18 | 246 | 0.0 | 1.6 | 0.00 | 0.00 | 0.00 | 35 | 1007.5 |
| 20260505001107 | 18 | 267 | 1.6 | 1.6 | 0.00 | 0.00 | 0.00 | 36 | 1007.5 |
| 20260505000603 | 18 | 248 | 0.0 | 1.6 | 0.00 | 0.00 | 0.00 | 35 | 1007.3 |
| 20260504235558 | 19 | 142 | 0.0 | 1.6 | 0.00 | 0.00 | 0.00 | 34 | 1007.1 |
| 20260504235054 | 19 | 192 | 1.6 | 1.6 | 0.00 | 0.00 | 0.00 | 33 | 1007.2 |
| 20260504234551 | 19 | 176 | 0.0 | 1.6 | 0.00 | 0.00 | 0.00 | 33 | 1007.1 |
| 20260504234048 | 20 | 124 | 0.0 | 1.6 | 0.00 | 0.00 | 0.00 | 33 | 1007.0 |
| 20260504233543 | 20 | 170 | 1.6 | 3.2 | 0.00 | 0.00 | 0.00 | 33 | 1007.1 |
| 20260504233041 | 20 | 217 | 0.0 | 3.2 | 0.00 | 0.00 | 0.00 | 32 | 1006.9 |
| 20260504232538 | 20 | 17 | 0.0 | 4.8 | 0.00 | 0.00 | 0.00 | 32 | 1006.9 |
| 20260504232036 | 20 | 249 | 0.0 | 3.2 | 0.00 | 0.00 | 0.00 | 32 | 1006.9 |
| 20260504231532 | 20 | 184 | 1.6 | 1.6 | 0.00 | 0.00 | 0.00 | 31 | 1006.7 |
| 20260504231028 | 20 | 235 | 0.0 | 4.8 | 0.00 | 0.00 | 0.00 | 30 | 1006.4 |
| 20260504230524 | 20 | 195 | 0.0 | 1.6 | 0.00 | 0.00 | 0.00 | 31 | 1006.4 |
| 20260504230023 | 20 | 230 | 3.2 | 4.8 | 0.00 | 0.00 | 0.00 | 30 | 1006.3 |
| 20260504225520 | 21 | 229 | 1.6 | 3.2 | 0.00 | 0.00 | 0.00 | 30 | 1006.4 |
| 20260504225017 | 21 | 343 | 0.0 | 3.2 | 0.00 | 0.00 | 0.00 | 32 | 1006.6 |
| 20260504224514 | 21 | 246 | 0.0 | 3.2 | 0.00 | 0.00 | 0.00 | 30 | 1006.3 |
| 20260504224011 | 21 | 300 | 1.6 | 6.4 | 0.00 | 0.00 | 0.00 | 29 | 1006.2 |
| 20260504223507 | 21 | 233 | 4.8 | 6.4 | 0.00 | 0.00 | 0.00 | 29 | 1006.3 |
| 20260504223003 | 21 | 238 | 0.0 | 3.2 | 0.00 | 0.00 | 0.00 | 29 | 1006.2 |
| 20260504222500 | 21 | 89 | 0.0 | 4.8 | 0.00 | 0.00 | 0.00 | 29 | 1006.2 |
| 20260504221958 | 21 | 264 | 3.2 | 3.2 | 0.00 | 0.00 | 0.00 | 28 | 1006.1 |
| 20260504221455 | 21 | 183 | 3.2 | 3.2 | 0.00 | 0.00 | 0.00 | 28 | 1006.1 |
| 20260504220952 | 21 | 147 | 1.6 | 4.8 | 0.00 | 0.00 | 0.00 | 29 | 1006.1 |
| 20260504220448 | 21 | 265 | 0.0 | 9.7 | 0.00 | 0.00 | 0.00 | 28 | 1006.1 |
| 20260504215945 | 21 | 60 | 0.0 | 1.6 | 0.00 | 0.00 | 0.00 | 28 | 1006.1 |
| 20260504215442 | 22 | 246 | 4.8 | 6.4 | 0.00 | 0.00 | 0.00 | 27 | 1006.3 |
| 20260504214938 | 22 | 243 | 3.2 | 4.8 | 0.00 | 0.00 | 0.00 | 27 | 1006.0 |
| 20260504214435 | 22 | 309 | 0.0 | 6.4 | 0.00 | 0.00 | 0.00 | 27 | 1006.2 |
| 20260504213932 | 22 | 236 | 1.6 | 9.7 | 0.00 | 0.00 | 0.00 | 26 | 1006.2 |
| 20260504213427 | 23 | 278 | 1.6 | 8.0 | 0.00 | 0.00 | 0.00 | 26 | 1006.3 |
| 20260504212925 | 23 | 280 | 1.6 | 3.2 | 0.00 | 0.00 | 0.00 | 26 | 1006.3 |
| 20260504212421 | 23 | 113 | 0.0 | 3.2 | 0.00 | 0.00 | 0.00 | 27 | 1005.9 |
| 20260504211919 | 23 | 189 | 4.8 | 6.4 | 0.00 | 0.00 | 0.00 | 25 | 1006.1 |
| 20260504211415 | 23 | 279 | 4.8 | 8.0 | 0.00 | 0.00 | 0.00 | 25 | 1005.9 |
| 20260504210912 | 23 | 109 | 0.0 | 4.8 | 0.00 | 0.00 | 0.00 | 27 | 1006.0 |
| 20260504210409 | 22 | 233 | 3.2 | 19.3 | 0.00 | 0.00 | 0.00 | 26 | 1006.1 |
| 20260504205906 | 22 | 262 | 4.8 | 8.0 | 0.00 | 0.00 | 0.00 | 26 | 1005.9 |
| 20260504205404 | 22 | 323 | 3.2 | 6.4 | 0.00 | 0.00 | 0.00 | 27 | 1006.1 |
| 20260504204902 | 23 | 35 | 4.8 | 6.4 | 0.00 | 0.00 | 0.00 | 26 | 1006.2 |
| 20260504204400 | 22 | 56 | 0.0 | 3.2 | 0.00 | 0.00 | 0.00 | 27 | 1006.1 |
| 20260504203900 | 22 | 35 | 0.0 | 4.8 | 0.00 | 0.00 | 0.00 | 26 | 1006.0 |
| 20260504203356 | 22 | 242 | 6.4 | 9.7 | 0.00 | 0.00 | 0.00 | 26 | 1006.2 |
| 20260504202852 | 22 | 82 | 3.2 | 8.0 | 0.00 | 0.00 | 0.00 | 27 | 1006.4 |
| 20260504202349 | 22 | 334 | 3.2 | 8.0 | 0.00 | 0.00 | 0.00 | 26 | 1006.2 |
| 20260504201845 | 22 | 231 | 6.4 | 12.9 | 0.00 | 0.00 | 0.00 | 25 | 1005.9 |
| 20260504201343 | 22 | 345 | 3.2 | 6.4 | 0.00 | 0.00 | 0.00 | 25 | 1005.9 |
| 20260504200840 | 23 | 263 | 4.8 | 6.4 | 0.00 | 0.00 | 0.00 | 24 | 1006.0 |
| 20260504200337 | 23 | 49 | 1.6 | 14.5 | 0.00 | 0.00 | 0.00 | 26 | 1006.2 |
| 20260504195833 | 23 | 229 | 3.2 | 25.7 | 0.00 | 0.00 | 0.00 | 24 | 1006.2 |
| 20260504195329 | 23 | 17 | 1.6 | 3.2 | 0.00 | 0.00 | 0.00 | 26 | 1006.2 |
| 20260504194826 | 23 | 250 | 9.7 | 9.7 | 0.00 | 0.00 | 0.00 | 24 | 1006.2 |
| 20260504194322 | 23 | 99 | 0.0 | 14.5 | 0.00 | 0.00 | 0.00 | 25 | 1006.2 |
| 20260504193818 | 23 | 137 | 0.0 | 4.8 | 0.00 | 0.00 | 0.00 | 25 | 1006.1 |
| 20260504193315 | 22 | 259 | 4.8 | 12.9 | 0.00 | 0.00 | 0.00 | 24 | 1006.1 |
| 20260504192814 | 22 | 252 | 3.2 | 6.4 | 0.00 | 0.00 | 0.00 | 25 | 1006.3 |
| 20260504192312 | 22 | 217 | 0.0 | 6.4 | 0.00 | 0.00 | 0.00 | 24 | 1006.2 |
| 20260504191810 | 22 | 258 | 3.2 | 6.4 | 0.00 | 0.00 | 0.00 | 26 | 1006.4 |
| 20260504191307 | 22 | 354 | 4.8 | 12.9 | 0.00 | 0.00 | 0.00 | 25 | 1006.4 |
| 20260504190802 | 23 | 185 | 1.6 | 9.7 | 0.00 | 0.00 | 0.00 | 25 | 1006.3 |
| 20260504190259 | 23 | 248 | 8.0 | 9.7 | 0.00 | 0.00 | 0.00 | 24 | 1006.6 |
| 20260504185755 | 22 | 54 | 3.2 | 14.5 | 0.00 | 0.00 | 0.00 | 26 | 1006.3 |
| 20260504185252 | 22 | 235 | 11.3 | 11.3 | 0.00 | 0.00 | 0.00 | 25 | 1006.4 |
| 20260504184748 | 22 | 223 | 0.0 | 6.4 | 0.00 | 0.00 | 0.00 | 25 | 1006.6 |
| 20260504184244 | 22 | 210 | 3.2 | 11.3 | 0.00 | 0.00 | 0.00 | 24 | 1006.7 |
| 20260504183740 | 22 | 317 | 6.4 | 6.4 | 0.00 | 0.00 | 0.00 | 25 | 1006.7 |
| 20260504183237 | 22 | 247 | 3.2 | 8.0 | 0.00 | 0.00 | 0.00 | 24 | 1006.8 |
| 20260504182735 | 22 | 208 | 6.4 | 14.5 | 0.00 | 0.00 | 0.00 | 25 | 1007.0 |
| 20260504182232 | 22 | 233 | 4.8 | 9.7 | 0.00 | 0.00 | 0.00 | 25 | 1006.8 |
| 20260504181730 | 22 | 305 | 11.3 | 12.9 | 0.00 | 0.00 | 0.00 | 25 | 1007.0 |
| 20260504181227 | 22 | 95 | 0.0 | 6.4 | 0.00 | 0.00 | 0.00 | 26 | 1007.1 |
| 20260504180726 | 22 | 320 | 4.8 | 14.5 | 0.00 | 0.00 | 0.00 | 25 | 1007.0 |
| 20260504180224 | 21 | 184 | 4.8 | 14.5 | 0.00 | 0.00 | 0.00 | 26 | 1006.8 |
| 20260504175722 | 21 | 146 | 3.2 | 9.7 | 0.00 | 0.00 | 0.00 | 25 | 1006.9 |
| 20260504175218 | 22 | 225 | 1.6 | 9.7 | 0.00 | 0.00 | 0.00 | 25 | 1006.9 |
| 20260504174716 | 22 | 343 | 3.2 | 12.9 | 0.00 | 0.00 | 0.00 | 26 | 1006.9 |
| 20260504174214 | 22 | 318 | 3.2 | 9.7 | 0.00 | 0.00 | 0.00 | 27 | 1007.1 |
| 20260504173710 | 21 | 211 | 1.6 | 9.7 | 0.00 | 0.00 | 0.00 | 26 | 1007.1 |
| 20260504173207 | 22 | 180 | 6.4 | 11.3 | 0.00 | 0.00 | 0.00 | 25 | 1007.0 |
| 20260504172704 | 21 | 190 | 6.4 | 6.4 | 0.00 | 0.00 | 0.00 | 26 | 1007.1 |
| 20260504172200 | 21 | 319 | 8.0 | 9.7 | 0.00 | 0.00 | 0.00 | 27 | 1007.2 |
| 20260504171657 | 21 | 185 | 1.6 | 17.7 | 0.00 | 0.00 | 0.00 | 25 | 1007.0 |
| 20260504171154 | 21 | 257 | 6.4 | 11.3 | 0.00 | 0.00 | 0.00 | 26 | 1007.1 |
| 20260504170650 | 21 | 139 | 4.8 | 4.8 | 0.00 | 0.00 | 0.00 | 27 | 1007.3 |
| 20260504170148 | 21 | 222 | 3.2 | 12.9 | 0.00 | 0.00 | 0.00 | 27 | 1007.4 |
| 20260504160107 | 20 | 238 | 17.7 | 19.3 | 0.00 | 0.00 | 0.00 | 27 | 1007.7 |
| 20260504151039 | 19 | 227 | 14.5 | 16.1 | 0.00 | 0.00 | 0.00 | 31 | 1008.1 |
| 20260504150536 | 19 | 202 | 4.8 | 11.3 | 0.00 | 0.00 | 0.00 | 31 | 1008.3 |
| 20260504141002 | 17 | 240 | 3.2 | 9.7 | 0.00 | 0.00 | 0.00 | 34 | 1009.0 |
| 20260504140459 | 17 | 18 | 4.8 | 8.0 | 0.00 | 0.00 | 0.00 | 35 | 1009.1 |
| 20260504130423 | 15 | 41 | 3.2 | 14.5 | 0.00 | 0.00 | 0.00 | 40 | 1009.8 |
| 20260504110310 | 8 | 86 | 1.6 | 1.6 | 0.00 | 0.00 | 0.00 | 57 | 1010.7 |
| 20260504100228 | 6 | 195 | 3.2 | 4.8 | 0.00 | 0.00 | 0.00 | 64 | 1010.7 |
| 20260504081622 | 5 | 72 | 0.0 | 0.0 | 0.00 | 0.00 | 0.00 | 74 | 1010.3 |
| 20260504081117 | 5 | 87 | 1.6 | 1.6 | 0.00 | 0.00 | 0.00 | 74 | 1010.3 |
| 20260504080614 | 6 | 89 | 1.6 | 1.6 | 0.00 | 0.00 | 0.00 | 73 | 1010.4 |
| 20260504080111 | 6 | 96 | 1.6 | 1.6 | 0.00 | 0.00 | 0.00 | 73 | 1010.5 |
| 20260504050427 | 2 | 107 | 0.0 | 0.0 | 0.00 | 0.00 | 0.00 | 73 | 1010.3 |
| 20260504045924 | 2 | 69 | 0.0 | 0.0 | 0.00 | 0.00 | 0.00 | 74 | 1010.3 |
| 20260504045420 | 2 | 76 | 0.0 | 0.0 | 0.00 | 0.00 | 0.00 | 74 | 1010.2 |
| 20260504044916 | 2 | 124 | 0.0 | 0.0 | 0.00 | 0.00 | 0.00 | 75 | 1010.2 |
| 20260504044414 | 2 | 124 | 0.0 | 0.0 | 0.00 | 0.00 | 0.00 | 75 | 1010.2 |
| 20260504043911 | 2 | 76 | 0.0 | 0.0 | 0.00 | 0.00 | 0.00 | 73 | 1010.0 |
| 20260504043408 | 2 | 89 | 0.0 | 0.0 | 0.00 | 0.00 | 0.00 | 73 | 1010.4 |
| 20260504042905 | 2 | 103 | 0.0 | 0.0 | 0.00 | 0.00 | 0.00 | 74 | 1010.3 |
| 20260504042401 | 2 | 89 | 0.0 | 0.0 | 0.00 | 0.00 | 0.00 | 73 | 1010.1 |
| 20260504041858 | 2 | 103 | 0.0 | 1.6 | 0.00 | 0.00 | 0.00 | 74 | 1010.2 |
| 20260504041354 | 2 | 63 | 0.0 | 1.6 | 0.00 | 0.00 | 0.00 | 73 | 1010.2 |
| 20260504040850 | 2 | 249 | 0.0 | 1.6 | 0.00 | 0.00 | 0.00 | 73 | 1010.3 |
| 20260504040348 | 2 | 150 | 0.0 | 0.0 | 0.00 | 0.00 | 0.00 | 74 | 1010.1 |
| 20260504035843 | 2 | 150 | 0.0 | 0.0 | 0.00 | 0.05 | 0.05 | 73 | 1010.1 |
| 20260504035342 | 2 | 22 | 0.0 | 0.0 | 0.00 | 0.05 | 0.05 | 73 | 1009.9 |
| 20260504034838 | 2 | 106 | 1.6 | 1.6 | 0.00 | 0.05 | 0.05 | 73 | 1010.1 |
| 20260504034336 | 2 | 141 | 0.0 | 0.0 | 0.00 | 0.05 | 0.05 | 75 | 1010.0 |
| 20260504033832 | 3 | 61 | 1.6 | 1.6 | 0.00 | 0.05 | 0.05 | 75 | 1009.7 |
| 20260504033331 | 3 | 13 | 0.0 | 0.0 | 0.00 | 0.05 | 0.05 | 73 | 1009.9 |
| 20260504032826 | 3 | 116 | 0.0 | 0.0 | 0.00 | 0.05 | 0.05 | 71 | 1010.1 |
| 20260504032324 | 3 | 125 | 0.0 | 1.6 | 0.00 | 0.05 | 0.05 | 73 | 1009.9 |